Weather History for Lake Charles Regional, LA

Change the Weather History Date:

Sunday, August 4, 2013

  Actual Average Record
Temperature  
Mean Temperature 86 °F 83 °F  
Max Temperature 94 °F 92 °F 100 °F (1897)
Min Temperature 78 °F 75 °F 64 °F (1925)
Degree Days  
Heating Degree Days 0 0  
Month to date heating degree days 0 0  
Since 1 June heating degree days 0 0  
Since 1 July heating degree days 0 0  
Cooling Degree Days 21 18  
Month to date cooling degree days 86 72  
Year to date cooling degree days 1690 1643  
Since 1 June cooling degree days 1205 1105  
Growing Degree Days 36 (Base 50)    
Moisture  
Dew Point 75 °F    
Average Humidity 72    
Maximum Humidity 91    
Minimum Humidity 52    
Precipitation  
Precipitation 0.05 in 0.16 in 3.10 in (1984)
Month to date precipitation 0.05 0.67  
Year to date precipitation 35.34 34.03  
Snow  
Snow 0.00 in 0.00 in 0.00 in ()
Month to date snowfall 0.0 0.0  
Since 1 June snowfall 0.0 0.0  
Since 1 July snowfall 0.0 0.0  
Snow Depth 0.00 in    
Sea Level Pressure  
Sea Level Pressure 30.07 in    
Wind  
Wind Speed 4 mph (SSW)    
Max Wind Speed 17 mph    
Max Gust Speed 22 mph    
Visibility 10 miles    
Events Rain , Thunderstorm    
T = Trace of Precipitation, MM = Missing Value Source: NWS Daily Summary

Daily Weather History Graph

Daily Weather History Graph

Search for Another Location

Airport:

Trip Planner

Search our weather history database for the weather conditions in past years. The results will help you decide how hot, cold, wet, or windy it might be!

Date:

Astronomy

Aug. 04, 2013 Rise Set
Actual Time 6:33 AM CDT 8:03 PM CDT
Civil Twilight 6:07 AM CDT 8:29 PM CDT
Nautical Twilight 5:37 AM CDT 9:00 PM CDT
Astronomical Twilight 5:04 AM CDT 9:32 PM CDT
Moon 4:36 AM CDT (8/4) 6:27 PM CDT (8/4)
Length of Visible Light 14h 21m
Length of Day
13h 30m
Waning Crescent, 4% of the Moon is Illuminated
Aug 4
Waning Crescent
Aug 6
New
Aug 14
First Quarter
Aug 20
Full
Aug 28
Last Quarter

Hourly Weather History & Observations

Time (CDT) Temp. Heat Index Dew Point Humidity Pressure Visibility Wind Dir Wind Speed Gust Speed Precip Events Conditions
12:53 AM 81.0 °F 87.3 °F 75.9 °F 85% 30.08 in 10.0 mi Calm Calm - N/A   Clear
1:53 AM 80.1 °F 85.4 °F 75.9 °F 87% 30.08 in 10.0 mi Calm Calm - N/A   Clear
2:53 AM 80.1 °F 85.4 °F 75.9 °F 87% 30.06 in 9.0 mi SW 3.5 mph - N/A   Clear
3:53 AM 78.1 °F - 75.0 °F 90% 30.06 in 9.0 mi Calm Calm - N/A   Clear
4:53 AM 79.0 °F - 75.9 °F 90% 30.06 in 10.0 mi Calm Calm - N/A   Clear
5:53 AM 78.1 °F - 75.0 °F 90% 30.06 in 10.0 mi Calm Calm - N/A   Partly Cloudy
6:53 AM 79.0 °F - 75.9 °F 90% 30.09 in 7.0 mi Calm Calm - 0.00 in   Clear
7:53 AM 84.0 °F 94.8 °F 78.1 °F 82% 30.10 in 10.0 mi Calm Calm - N/A   Clear
8:53 AM 86.0 °F 96.9 °F 77.0 °F 74% 30.11 in 10.0 mi West 4.6 mph - N/A   Mostly Cloudy
9:53 AM 89.1 °F 100.2 °F 75.9 °F 65% 30.12 in 10.0 mi West 4.6 mph - N/A   Partly Cloudy
10:53 AM 90.0 °F 100.2 °F 75.0 °F 61% 30.12 in 10.0 mi Variable 3.5 mph - N/A   Partly Cloudy
11:53 AM 91.9 °F 101.3 °F 73.9 °F 55% 30.10 in 10.0 mi Calm Calm - N/A   Mostly Cloudy
12:53 PM 91.0 °F 100.4 °F 73.9 °F 57% 30.09 in 10.0 mi South 4.6 mph - N/A   Mostly Cloudy
1:06 PM 91.4 °F 100.1 °F 73.4 °F 55% 30.06 in 10.0 mi Variable 3.5 mph - N/A Thunderstorm Thunderstorm
1:53 PM 84.9 °F 91.4 °F 73.0 °F 67% 30.08 in 10.0 mi East 5.8 mph - 0.00 in Rain Light Rain
2:12 PM 84.2 °F 90.9 °F 73.4 °F 70% 30.05 in 10.0 mi ENE 3.5 mph - 0.00 in Thunderstorm Partly Cloudy
2:39 PM 86.0 °F 95.1 °F 75.2 °F 70% 30.04 in 10.0 mi ESE 3.5 mph - 0.00 in   Clear
2:53 PM 90.0 °F 100.2 °F 75.0 °F 61% 30.06 in 10.0 mi Variable 3.5 mph - 0.00 in   Clear
3:53 PM 93.0 °F 104.6 °F 75.0 °F 56% 30.04 in 10.0 mi SSW 9.2 mph - N/A   Clear
4:53 PM 93.0 °F 103.2 °F 73.9 °F 54% 30.03 in 10.0 mi SSW 9.2 mph - N/A   Clear
5:53 PM 91.0 °F 100.4 °F 73.9 °F 57% 30.02 in 10.0 mi SSW 6.9 mph - N/A   Clear
6:53 PM 91.0 °F 100.4 °F 73.9 °F 57% 30.02 in 10.0 mi SSW 6.9 mph - N/A   Clear
7:53 PM 88.0 °F 96.5 °F 73.9 °F 63% 30.03 in 10.0 mi South 5.8 mph - N/A   Clear
8:53 PM 84.9 °F 94.1 °F 75.9 °F 74% 30.03 in 10.0 mi SW 5.8 mph - N/A   Clear
9:53 PM 84.0 °F 93.7 °F 77.0 °F 79% 30.05 in 10.0 mi SW 4.6 mph - N/A   Clear
10:53 PM 82.9 °F 91.8 °F 77.0 °F 82% 30.07 in 10.0 mi SW 3.5 mph - N/A   Clear
11:53 PM 82.9 °F 91.8 °F 77.0 °F 82% 30.07 in 10.0 mi SW 3.5 mph - N/A   Clear